This is the latest recevied weather packets stored in our database for station/object DM4RS-1. If no packets are shown the sender has not sent any weather packets the latest 10 day(s).
| Time | Temp. | Humidity | Pressure | Rain* | Wind** | Luminosity | Snow |
|---|---|---|---|---|---|---|---|
| 1777532781 | 10° C | 48% | 1034.7 hPa | - | - | - | - |
| 1777532181 | 9.44° C | 49% | 1034.9 hPa | - | - | - | - |
| 1777531580 | 8.33° C | 50% | 1034.9 hPa | - | - | - | - |
| 1777530981 | 7.78° C | 51% | 1034.6 hPa | - | - | - | - |
| 1777530381 | 6.67° C | 53% | 1033.8 hPa | - | - | - | - |
| 1777529781 | 6.11° C | 55% | 1034.7 hPa | - | - | - | - |
| 1777529181 | 5° C | 56% | 1033.8 hPa | - | - | - | - |
| 1777528581 | 3.89° C | 58% | 1035.1 hPa | - | - | - | - |
| 1777527981 | 2.78° C | 62% | 1035.6 hPa | - | - | - | - |
| 1777527380 | 1.67° C | 61% | 1035.6 hPa | - | - | - | - |
| 1777526780 | 1.11° C | 59% | 1034.7 hPa | - | - | - | - |
| 1777526180 | 0.56° C | 58% | 1034.2 hPa | - | - | - | - |
| 1777525580 | 0° C | 56% | 1034.8 hPa | - | - | - | - |
| 1777524980 | -0.56° C | 55% | 1034.6 hPa | - | - | - | - |
| 1777524379 | -1.11° C | 53% | 1035.3 hPa | - | - | - | - |
| 1777523779 | -1.11° C | 54% | 1034.1 hPa | - | - | - | - |
| 1777523179 | -1.11° C | 53% | 1035.2 hPa | - | - | - | - |
| 1777522579 | -1.67° C | 54% | 1034.5 hPa | - | - | - | - |
| 1777521979 | -1.67° C | 56% | 1035 hPa | - | - | - | - |
| 1777521379 | -1.67° C | 56% | 1033.8 hPa | - | - | - | - |
| 1777520779 | -1.11° C | 57% | 1035.4 hPa | - | - | - | - |
| 1777520179 | -1.11° C | 57% | 1032.7 hPa | - | - | - | - |
| 1777519579 | -1.11° C | 57% | 1034.4 hPa | - | - | - | - |
| 1777518979 | -1.11° C | 57% | 1034.6 hPa | - | - | - | - |
| 1777518379 | -1.11° C | 59% | 1033.8 hPa | - | - | - | - |
* Rain since midnight (hover to see other rain measurements)
** Current wind speed in m/s (hover to see current wind gust speed)